Miscellaneous Local Product
Issued by NWS Hastings, NE

Home | Current Version | Previous Version | Graphics & Text | Print | Product List | Glossary On
Versions: 1 2 3 4 5 6 7 8 9 10 11 12 13 14 15 16 17 18 19 20 21 22 23 24 25 26 27 28 29 30 31 32 33 34 35 36 37 38 39 40 41 42 43 44 45 46 47 48 49 50
000
AXUS43 KGID 280902
MISGRI

GID CWA HOURLY WEATHER ROUNDUP
NATIONAL WEATHER SERVICE HASTINGS NE
300 AM CST SAT FEB 28 2015

NOTE: "FAIR" INDICATES FEW OR NO CLOUDS BELOW 12,000 FEET WITH NO
SIGNIFICANT WEATHER AND/OR OBSTRUCTIONS TO VISIBILITY.

...SOUTH CENTRAL NEBRASKA...

CITY           SKY/WX    TMP DP  RH WIND       PRES   REMARKS
GRAND ISLAND   CLEAR      8   3  80 S9        30.37F WCI  -5
HASTINGS       CLEAR      8   2  76 S7        30.35F WCI  -3
KEARNEY        PTCLDY     7   1  78 S8        30.32S WCI  -6
ORD            CLEAR      9   1  70 S10       30.30F WCI  -5
YORK           CLEAR     10   5  79 S7        30.41S WCI   0
AURORA         CLEAR     10   2  72 S8        30.38F WCI  -3
LEXINGTON      CLOUDY    15   8  73 S9        30.26F WCI   4
HOLDREGE       CLOUDY    12   7  79 S9        30.30S WCI   0
HEBRON         CLEAR      8   2  78 CALM      30.43F

...NEBRASKA PANHANDLE...

CITY           SKY/WX    TMP DP  RH WIND       PRES   REMARKS
CHADRON        CLEAR     11   4  73 S5        30.03S WCI   3
ALLIANCE       CLEAR      8   4  83 S14       30.00F WCI  -8
SCOTTSBLUFF    CLEAR      9   4  80 SE9       29.99F WCI  -4
SIDNEY         CLEAR      6   2  83 S9        29.99S WCI  -8

...WESTERN AND NORTH CENTRAL NEBRASKA...

CITY           SKY/WX    TMP DP  RH WIND       PRES   REMARKS
VALENTINE      CLOUDY    17   6  62 SW10      30.16R WCI   5
AINSWORTH      PTCLDY    10   4  75 S10       30.18F WCI  -3
ONEILL         CLEAR     10   2  72 S9        30.30S WCI  -3
BROKEN BOW     CLOUDY    13   4  67 S12       30.24F WCI  -1
IMPERIAL         N/A     14   7  73 S12       30.12F WCI   0
NORTH PLATTE   CLOUDY    13   5  70 S9        30.19F WCI   1
MCCOOK         MOCLDY    14   6  70 SE8       30.22F WCI   3

...EASTERN NEBRASKA...

CITY           SKY/WX    TMP DP  RH WIND       PRES   REMARKS
NORFOLK        CLEAR      8   1  73 S9        30.38F WCI  -5
SO SIOUX CITY  CLEAR      1  -4  79 E8        30.47F WCI -13
TEKAMAH        CLEAR      4  -2  76 SE7       30.49F WCI  -8
COLUMBUS       CLEAR      7  -6  56 S5        30.42F WCI  -2
ALBION         CLEAR      5  -2  74 S6        30.37S WCI  -6
OMAHA EPPLEY   CLEAR      8   0  69 SE6       30.51F WCI  -2
OFFUTT AFB     CLEAR      8   0  69 SE5       30.49F WCI  -1
MILLARD        CLEAR     10   2  71 SE3       30.50S
LINCOLN        CLEAR      5   0  79 S7        30.47F WCI  -7
NEBRASKA CITY  CLEAR      7  -3  63 S5        30.49F WCI  -2
BEATRICE       CLEAR     11   3  70 S5        30.46F WCI   3
FALLS CITY     CLOUDY    14   5  67 CALM      30.51F

...NORTHERN KANSAS...

CITY           SKY/WX    TMP DP  RH WIND       PRES   REMARKS
GOODLAND       LGT SNOW  11   8  88 S15       30.10F FOG     WCI  -5
HILL CITY      FLURRIES  14   7  73 S10       30.30F WCI   1
NORTON         CLOUDY    12   5  73 SE9       30.26F WCI   0
PHILLIPSBURG   CLOUDY    18   9  68 SE7       30.34F WCI   8
SMITH CENTER   FLURRIES   7   5  92 SE7       30.37F WCI  -5
BELOIT         CLEAR      9   5  85 SE6       30.42F WCI  -1
HAYS           CLOUDY    12   1  62 SE8       30.33F WCI   1
RUSSELL        CLOUDY    11   8  88 SE7       30.34F WCI   0
CONCORDIA      CLEAR      9   7  92 S7        30.42F WCI  -2
SALINA         CLOUDY    13   8  81 SE6       30.44F WCI   4
TOPEKA         CLEAR     13   4  67 CALM      30.52F



USA.gov is the U.S. government's official web portal to all federal, state and local government web resources and services.